FW4376 Weather Reports


time (UTC)temp
C
wind
direction
speed
KPH
gust
KPH
rain 1hr
cm
rain 24hr
cm
rain mn
cm
humidity
%
barometer
mb
20260508024524 17 202 0.0 0.0 0.00 0.00 0.00 77 1015.7
20260508023021 17 202 0.0 0.0 0.00 0.00 0.00 76 1015.5
20260508021521 17 204 0.0 0.0 0.00 0.00 0.00 75 1015.2
20260508020020 17 204 0.0 0.0 0.00 0.00 0.00 74 1015.1
20260508014519 18 206 0.0 1.6 0.00 0.00 0.00 73 1015.3
20260508013018 18 165 0.0 0.0 0.00 0.00 0.00 73 1015.1
20260508011518 18 200 0.0 3.2 0.00 0.00 0.00 72 1015.1
20260508010027 18 236 0.0 1.6 0.00 0.00 0.00 71 1015.2
20260508004524 19 120 0.0 3.2 0.00 0.00 0.00 70 1015.3
20260508003015 19 128 0.0 4.8 0.00 0.00 0.00 69 1015.1
20260508001514 20 167 1.6 9.7 0.00 0.00 0.00 68 1015.3
20260508000014 20 104 1.6 8.0 0.00 0.00 0.00 67 1015.2
20260507234513 20 227 0.0 6.4 0.00 0.00 0.00 66 1015.3
20260507233013 20 200 1.6 6.4 0.00 0.00 0.00 66 1015.3
20260507231512 20 234 1.6 6.4 0.00 0.00 0.00 66 1015.4
20260507230010 21 105 1.6 8.0 0.00 0.00 0.00 65 1015.5
20260507224513 21 101 3.2 6.4 0.00 0.00 0.00 64 1015.4
20260507223009 21 145 0.0 8.0 0.00 0.00 0.00 64 1015.5
20260507221510 22 127 1.6 9.7 0.00 0.00 0.00 61 1015.6
20260507220007 23 165 1.6 6.4 0.00 0.00 0.00 58 1015.5
20260507214506 23 345 0.0 3.2 0.00 0.00 0.00 53 1015.7
20260507213005 24 98 0.0 3.2 0.00 0.00 0.00 52 1015.9
20260507211504 24 14 0.0 3.2 0.00 0.00 0.00 51 1015.9
20260507210003 25 13 1.6 4.8 0.00 0.00 0.00 49 1015.8
20260507204501 25 140 0.0 3.2 0.00 0.00 0.00 51 1015.8
20260507203103 25 93 0.0 4.8 0.00 0.00 0.00 52 1016.3
20260507201556 24 181 1.6 6.4 0.00 0.00 0.00 51 1016.4
20260507200054 24 321 1.6 4.8 0.00 0.00 0.00 52 1016.5
20260507194553 23 261 0.0 4.8 0.00 0.00 0.00 53 1016.8
20260507193050 23 313 3.2 6.4 0.00 0.00 0.00 53 1017.0
20260507191551 23 30 0.0 8.0 0.00 0.00 0.00 55 1017.2
20260507190047 23 153 1.6 6.4 0.00 0.00 0.00 54 1017.3
20260507184543 23 116 1.6 8.0 0.00 0.00 0.00 55 1017.5
20260507183047 22 298 3.2 8.0 0.00 0.00 0.00 57 1017.7
20260507181542 22 11 1.6 8.0 0.00 0.00 0.00 57 1017.9
20260507180040 22 223 1.6 6.4 0.00 0.00 0.00 59 1018.1
20260507174535 21 111 1.6 8.0 0.00 0.00 0.00 59 1018.3
20260507173037 21 247 0.0 9.7 0.00 0.00 0.00 59 1018.5
20260507171534 21 110 1.6 6.4 0.00 0.00 0.00 60 1019.1
20260507170032 21 41 0.0 6.4 0.00 0.00 0.00 61 1019.3
20260507164531 21 233 1.6 6.4 0.00 0.00 0.00 60 1019.5
20260507163036 20 80 0.0 4.8 0.00 0.00 0.00 61 1019.7
20260507161535 20 112 0.0 4.8 0.00 0.00 0.00 64 1019.8
20260507160038 19 121 1.6 4.8 0.00 0.00 0.00 64 1019.7
20260507154524 19 3 3.2 6.4 0.00 0.03 0.00 65 1020.0
20260507153022 19 359 0.0 8.0 0.00 0.03 0.00 66 1020.1
20260507151519 18 212 1.6 6.4 0.00 0.03 0.00 68 1020.1
20260507150020 18 13 0.0 4.8 0.00 0.03 0.00 69 1020.3
20260507144526 18 167 0.0 4.8 0.00 0.03 0.00 72 1020.6
20260507143013 17 273 0.0 3.2 0.00 0.03 0.00 77 1020.6
20260507141515 16 96 0.0 4.8 0.00 0.03 0.00 79 1020.6
20260507140006 16 246 0.0 8.0 0.00 0.03 0.00 82 1021.0
20260507134600 15 250 0.0 3.2 0.00 0.03 0.00 89 1021.1
20260507133101 13 13 0.0 4.8 0.00 0.03 0.00 92 1021.1
20260507131554 12 233 0.0 1.6 0.00 0.03 0.00 94 1020.9
20260507130104 12 323 0.0 3.2 0.00 0.03 0.00 94 1021.0
20260507124613 11 243 0.0 1.6 0.00 0.03 0.00 94 1020.6
20260507123049 11 269 0.0 1.6 0.00 0.03 0.00 94 1020.6
20260507121547 10 239 0.0 1.6 0.00 0.03 0.00 94 1020.4
20260507120046 10 239 0.0 1.6 0.00 0.03 0.00 94 1020.1
20260507114605 10 240 0.0 1.6 0.00 0.03 0.00 93 1019.8
20260507113044 10 240 0.0 1.6 0.00 0.03 0.00 93 1020.0
20260507111543 10 269 0.0 1.6 0.00 0.03 0.00 93 1019.8
20260507110044 10 295 0.0 1.6 0.00 0.03 0.00 93 1018.9
20260507104542 10 334 0.0 1.6 0.00 0.03 0.00 93 1018.6
20260507103034 10 21 0.0 1.6 0.00 0.03 0.00 93 1018.3
20260507101533 10 22 0.0 0.0 0.00 0.03 0.00 92 1018.4
20260507100030 10 22 0.0 1.6 0.00 0.03 0.00 92 1018.3
20260507094529 10 21 0.0 0.0 0.00 0.03 0.00 92 1018.1
20260507093035 10 21 0.0 1.6 0.00 0.03 0.00 92 1018.1
20260507091537 11 27 0.0 0.0 0.00 0.03 0.00 92 1018.1
20260507090023 11 27 0.0 1.6 0.00 0.03 0.00 92 1018.0
20260507084525 11 33 0.0 1.6 0.00 0.03 0.00 92 1017.9
20260507083021 11 352 0.0 1.6 0.00 0.03 0.00 92 1017.9
20260507081521 11 15 0.0 3.2 0.00 0.03 0.00 92 1017.6
20260507080018 11 54 0.0 3.2 0.00 0.03 0.00 92 1017.6
20260507074517 11 339 0.0 3.2 0.00 0.03 0.00 91 1017.6
20260507073016 11 18 0.0 3.2 0.00 0.03 0.00 91 1017.5
20260507071515 12 357 0.0 1.6 0.00 0.03 0.00 91 1017.6
20260507070008 12 92 0.0 3.2 0.00 0.03 0.00 90 1017.5
20260507064503 12 97 0.0 3.2 0.00 0.03 0.00 90 1017.5
20260507063004 12 86 0.0 3.2 0.00 0.03 0.00 89 1017.4
20260507061602 12 109 0.0 3.2 0.00 0.03 0.00 89 1017.3
20260507060059 12 110 0.0 3.2 0.00 0.03 0.00 88 1017.3
20260507054557 12 202 0.0 3.2 0.00 0.03 0.00 87 1017.3
20260507053055 13 78 0.0 6.4 0.00 0.03 0.00 86 1017.4
20260507051555 13 102 1.6 8.0 0.00 0.03 0.00 85 1017.5
20260507050049 13 340 1.6 6.4 0.00 0.03 0.00 84 1017.6
20260507044552 13 82 0.0 6.4 0.00 0.03 0.03 83 1017.5
20260507043050 13 25 1.6 6.4 0.00 0.03 0.03 83 1017.9
20260507041548 13 6 0.0 4.8 0.00 0.03 0.03 83 1017.9
20260507040046 13 80 0.0 4.8 0.00 0.03 0.03 83 1017.9
20260507034547 14 88 0.0 4.8 0.00 0.03 0.03 84 1017.9
20260507033046 14 94 1.6 8.0 0.00 0.03 0.03 84 1017.7
20260507031544 14 76 3.2 6.4 0.00 0.03 0.03 85 1017.5
20260507030043 14 104 0.0 8.0 0.00 0.03 0.03 85 1017.1